Location: Baile an Aic�adaigh
(52.2439°N, 7.3311°W)
Time: 07:24:05
(UTC+00:00)

Daily predictions for brighter satellites

Satellite Brightness Start Highest point End
(mag) Time Altitude Azimuth Time Altitude Azimuth Time Altitude Azimuth
DMSP B5D2-2 4.1 20:39:33 10° NNE 20:44:49 85° ESE 20:50:03 10° SSW
SPOT 1/Viking Rocket 4.3 20:40:50 10° SE 20:45:37 38° ENE 20:50:27 10° N
Genesis I 3.9 20:42:49 10° NW 20:46:34 45° NE 20:50:19 10° ESE
SL-4 R/B 3.5 20:44:12 10° S 20:46:35 16° SE 20:48:54 10° ESE
BREEZE-M DEB (TANK) 2.7 20:44:58 10° SW 20:47:22 37° SSE 20:52:14 10° E
ATLAS 5 CENTAUR R/B 3.0 20:44:02 10° NW 20:49:28 53° SW 20:55:47 10° SSE
Cosmos 1140 Rocket 4.4 20:46:47 10° SSE 20:51:16 29° E 20:55:46 10° NE
Cosmos 389 Rocket 2.6 20:49:45 10° NNW 20:53:12 75° WSW 20:56:38 10° S
Cosmos 2228 Rocket 3.8 20:49:21 10° NNW 20:53:43 55° W 20:58:01 10° S
Cosmos 1812 2.7 20:52:25 10° NNW 20:56:18 87° W 21:00:09 10° S
Cosmos 1697 Rocket 2.7 20:51:15 10° NNW 20:56:55 89° ENE 21:02:33 10° SSE
Cosmos 1833 Rocket 3.0 20:54:45 10° S 21:00:03 45° ESE 21:05:24 10° NE
Cosmos 1633 Rocket 3.8 20:56:24 10° SSE 21:00:23 33° E 21:04:22 10° NNE
SPOT 3 Rocket 4.1 20:58:04 10° S 21:03:13 59° WSW 21:08:23 10° NNW
Cosmos 2251 Rocket 4.0 21:00:33 10° SW 21:05:47 69° WNW 21:11:07 10° NNE
CENTAUR R/B 4.1 21:04:51 10° ESE 21:07:10 12° E 21:09:36 10° E
Cosmos 1707 Rocket 3.5 21:03:27 10° N 21:07:50 81° E 21:12:10 10° SSE
Cosmos 1656 4.5 21:02:48 10° NW 21:08:03 47° WSW 21:13:19 10° S
Resurs 01 Rocket 2.1 21:06:53 10° S 21:11:15 64° WSW 21:15:40 10° NNW
Landsat 7 3.9 21:09:17 10° SSE 21:14:00 70° ENE 21:18:46 10° N
Cosmos 1441 Rocket 3.1 21:11:01 10° S 21:14:49 88° E 21:18:36 10° NNE
ATLAS 5 CENTAUR R/B 3.0 21:17:00 10° NNW 21:18:51 23° NNE 21:21:52 10° E
IGS 5A 3.4 21:17:37 10° SSE 21:21:45 81° ENE 21:25:55 10° NNW
Cosmos 1470 Rocket 4.4 21:19:31 12° SSE 21:23:06 33° E 21:27:01 10° NNE
Cosmos 614 Rocket 3.9 21:18:23 10° SSW 21:23:34 83° ESE 21:28:49 10° NNE
Cosmos 2360 4.4 21:18:25 10° NNW 21:24:11 77° WSW 21:29:33 12° SSE
Cosmos 1934 Rocket 4.1 21:18:51 10° S 21:25:06 63° E 21:31:24 10° NNE
GP-B 3.2 21:22:02 10° N 21:26:27 59° E 21:30:41 11° SSE
Cosmos 921 Rocket 3.3 21:27:39 10° NNW 21:31:50 52° ENE 21:34:50 17° SE
NOSS 3-2 (A) 4.2 21:27:24 10° S 21:32:16 29° ESE 21:37:40 10° ENE
USA 267 3.3 21:26:34 10° ENE 21:33:04 63° SE 21:39:33 10° SW
Cosmos 1862 Rocket 3.6 21:29:53 10° N 21:34:24 76° E 21:38:10 14° SSE
COSMOS 2406 3.4 21:32:37 10° SW 21:38:23 78° WNW 21:44:09 10° NNE
Cosmos 1821 Rocket 4.3 21:32:23 10° SSW 21:38:31 71° WNW 21:44:47 10° N
Meteor 2-20 Rocket 4.5 21:32:30 10° N 21:38:44 86° E 21:44:35 12° S
SL-16 R/B 3.0 21:34:27 10° NNW 21:39:52 42° NE 21:44:17 15° ESE
SAR-Lupe-2 4.4 21:36:56 10° NNE 21:40:11 31° E 21:41:56 20° SE
ERS-1 Rocket 3.0 21:36:08 15° SSE 21:40:16 69° ENE 21:45:17 10° N
Lacrosse 5 2.1 21:35:58 10° WNW 21:41:03 71° NNE 21:45:32 13° ESE
Cosmos 468 Rocket 4.5 21:36:43 10° NNW 21:41:56 51° ENE 21:45:45 18° SE
Sich 1 3.7 21:38:35 10° SSW 21:42:58 59° WNW 21:47:24 10° N
Cosmos 2369 4.4 21:39:16 10° NW 21:44:48 49° WSW 21:50:01 11° S
NOSS 2 (A) 4.0 21:47:04 10° NW 21:49:49 87° NE 21:50:43 35° SE
Cosmos 2219 Rocket 4.4 21:46:17 10° NNW 21:50:05 18° NNE 21:53:53 10° ENE
Cosmos 2082 Rocket 2.2 21:47:35 10° SSW 21:53:13 66° ESE 21:58:51 10° NE
Cosmos 1954 Rocket 4.1 21:48:05 10° S 21:53:17 57° ESE 21:58:31 10° NNE
Meteor 1-4 Rocket 3.4 21:50:26 10° NNW 21:53:47 44° W 21:56:38 13° SSW
Cosmos 2278 4.1 21:48:30 10° NW 21:54:08 60° WSW 21:58:39 16° S
Cosmos 1184 Rocket 2.7 21:53:56 17° S 21:56:23 78° E 21:59:43 10° NNE
Cosmos 2123 Rocket 4.3 21:50:21 10° NNW 21:56:30 65° W 22:02:39 10° S
Spot 2 Rocket 4.1 21:51:37 10° S 21:56:35 54° W 22:01:37 10° NNW
CARTOSAT-1 3.6 21:57:11 19° SSE 22:00:17 83° WSW 22:04:39 10° NNW
Cosmos 2322 Rocket 2.8 21:56:46 10° NNW 22:02:18 49° NE 22:06:13 19° ESE
Terra 1.9 22:00:02 22° SSE 22:03:06 70° ENE 22:07:52 10° N
Cosmos 1933 Rocket 3.7 22:01:23 20° SSE 22:04:13 57° E 22:08:35 10° NNE
Cosmos 1190 Rocket 4.2 21:59:05 10° SSW 22:04:22 79° WNW 22:09:43 10° NNE
Cosmos 1666 Rocket 4.3 22:00:33 10° SSW 22:04:46 52° WNW 22:09:02 10° N
Okean 1 3.3 22:00:49 10° N 22:04:53 75° E 22:07:06 26° SSE
Cosmos 407 Rocket 4.0 22:02:00 10° SW 22:07:18 64° WNW 22:12:34 10° NNE
Cosmos 1238 Rocket 1.9 22:06:54 30° S 22:08:14 74° E 22:11:10 10° NNE
Cosmos 1602 3.9 22:06:47 25° SSE 22:08:49 56° E 22:12:41 10° NNE
Cosmos 1437 Rocket 2.9 22:05:23 10° N 22:09:11 58° ENE 22:10:50 30° SE
USA 234 3.7 22:06:06 20° SSE 22:10:33 50° SW 22:16:54 10° WNW
Meteor 1-20 Rocket 4.3 22:05:29 11° S 22:11:12 81° E 22:17:05 10° NNE
Cosmos 1605 Rocket 3.9 22:05:45 10° S 22:11:53 86° ESE 22:18:01 10° N
ERBS 3.6 22:09:03 10° W 22:12:13 40° NNW 22:15:23 10° ENE
Cosmos 1869 Rocket 4.5 22:13:01 25° SE 22:14:30 32° E 22:18:28 10° NNE
Cosmos 2360 Rocket 3.2 22:11:05 10° NNW 22:16:24 38° NE 22:20:20 17° ESE
SPOT 5 2.8 22:15:08 22° S 22:17:52 66° WSW 22:22:14 10° NNW
Meteor 1-19 Rocket 4.1 22:15:45 10° NNW 22:21:12 89° WSW 22:24:35 24° S
ATLAS 3B R/B 4.0 22:21:12 17° ESE 22:21:38 17° ESE 22:25:38 10° ENE
Cosmos 1703 Rocket 3.5 22:17:41 10° N 22:22:05 85° ENE 22:24:15 29° SSE
Cosmos 2242 Rocket 3.7 22:17:57 10° NNW 22:22:25 73° W 22:24:58 25° S
Iridium 4 Rocket 3.8 22:21:45 28° SE 22:23:15 37° E 22:27:09 10° NNE
Geosat 4.3 22:20:48 24° ESE 22:23:46 59° NE 22:28:44 10° NNW
Genesis I 4.5 22:20:38 10° WNW 22:24:03 30° WSW 22:25:37 22° SSW
Cosmos 2173 Rocket 4.4 22:21:11 24° SSE 22:24:31 46° E 22:30:18 10° NNE
Cosmos 1980 Rocket 3.1 22:19:43 10° NW 22:25:00 40° WSW 22:28:51 17° S
SL-4 R/B 1.8 22:21:55 10° SW 22:25:38 49° SSE 22:27:13 28° E
Cosmos 1500 3.9 22:25:10 31° ESE 22:25:48 33° E 22:29:12 10° NNE
Cosmos 405 Rocket 2.5 22:24:29 27° S 22:26:23 88° ESE 22:30:09 10° NNE
USA 238 DEB 3.7 22:21:20 10° SSW 22:27:51 60° SE 22:34:40 10° NE
USA 238 3.7 22:21:28 10° SSW 22:27:57 60° SE 22:34:46 10° NE
Cosmos 1763 Rocket 3.5 22:22:54 10° NNW 22:28:17 86° WSW 22:31:09 28° SSE
ALOS 2 4.4 22:27:44 15° E 22:29:49 21° ENE 22:33:04 10° NNE
Cosmos 1140 Rocket 4.3 22:27:42 10° SW 22:32:50 52° WNW 22:37:59 10° NNE
Meteor 1-14 Rocket 4.3 22:29:24 21° S 22:33:23 73° E 22:39:20 10° NNE
Cosmos 2333 Rocket 3.8 22:31:39 10° NNW 22:36:39 29° NE 22:41:19 11° E
Cosmos 1666 4.1 22:37:32 22° E 22:37:38 22° E 22:40:34 10° NE
Meteor 1-13 Rocket 4.4 22:35:18 10° N 22:40:47 56° ENE 22:43:23 30° SE
Okean 1-7 3.2 22:39:07 10° NNW 22:43:27 68° W 22:45:21 32° S
Cosmos 1833 Rocket 4.0 22:38:45 10° WSW 22:44:04 42° NW 22:49:26 10° NNE
Cosmos 2061 Rocket 4.5 22:41:23 28° SE 22:44:09 44° E 22:49:58 10° NNE
MOS 1-B Rocket 4.3 22:39:04 10° NNE 22:44:33 44° E 22:46:44 30° SSE
Cosmos 2221 Rocket 4.1 22:40:38 10° N 22:44:58 49° ENE 22:46:29 34° SE
Cosmos 1459 Rocket 4.1 22:42:36 27° SSE 22:46:04 64° E 22:52:22 10° NNE
FALCON 9 DEB 3.1 22:45:28 10° WSW 22:48:49 59° SSE 22:48:49 59° SSE
Okean 3 3.6 22:44:55 10° N 22:49:11 63° ENE 22:50:30 41° SE
Cosmos 1867 3.6 22:43:54 10° SW 22:49:21 81° NW 22:54:52 10° NE
Cosmos 1733 Rocket 4.3 22:50:59 25° ESE 22:51:37 26° E 22:55:17 10° NNE
Cosmos 1515 4.4 22:48:09 10° NNW 22:51:52 48° W 22:53:17 31° SSW
SL-27 R/B 2.8 22:53:08 43° E 22:53:08 43° E 22:56:02 10° NE
Thor Agena Rocket 4.2 22:51:03 10° NNE 22:55:45 37° E 22:56:59 32° SE
CENTAUR R/B 2.6 22:51:50 20° SSW 22:56:02 57° SE 23:03:03 10° NE
Cosmos 1850 Rocket 3.9 22:54:34 26° SSW 22:57:38 77° ESE 23:02:56 10° NNE
Cosmos 967 Rocket 4.5 22:51:16 10° NW 22:57:42 85° NE 23:01:04 30° SE
Meteor 2-4 Rocket 3.8 22:52:30 10° NNW 22:58:13 74° W 23:00:58 31° S
Cosmos 44 3.3 22:54:43 10° NW 22:59:35 86° SW 23:01:33 38° SE
Cosmos 1802 Rocket 4.1 22:58:41 30° S 23:01:57 68° E 23:08:17 10° NNE
Spot 4 3.8 23:06:33 40° SSE 23:08:14 75° ENE 23:13:05 10° NNW
Cosmos 2346 Rocket 4.4 23:02:20 10° N 23:08:27 82° E 23:11:12 35° SSE
Cosmos 1378 4.4 23:08:38 10° N 23:11:57 29° ENE 23:12:29 28° E
USA 267 3.5 23:09:41 10° ENE 23:16:12 71° NNW 23:22:42 10° W
Cosmos 841 Rocket 3.7 23:15:07 10° NNW 23:20:17 62° WSW 23:22:05 39° S
Cosmos 540 Rocket 3.6 23:16:20 10° NNW 23:21:28 62° WSW 23:23:10 40° S
NOSS 3-2 (A) 3.6 23:16:33 10° SW 23:22:27 76° NW 23:29:19 10° NE
Lacrosse 5 2.4 23:19:07 10° WNW 23:23:52 41° SW 23:24:41 38° SSW
Cosmos 1816 Rocket 4.4 23:17:33 10° N 23:23:54 86° E 23:26:36 37° SSE
SL-16 R/B 2.8 23:18:40 10° NW 23:24:02 45° WSW 23:26:08 32° SSW
Cosmos 2322 4.0 23:21:16 10° NNW 23:26:55 61° NE 23:29:31 32° ESE
Cosmos 1378 Rocket 4.1 23:23:27 10° N 23:27:49 49° ENE 23:28:49 41° ESE
NOSS 3-2 (C) 3.4 23:23:11 14° SW 23:28:18 85° SE 23:35:07 10° NE
COSMOS 2487 4.1 23:32:14 22° ENE 23:32:14 22° ENE 23:34:09 10° NE
Cosmos 1741 Rocket 4.3 23:28:41 21° SW 23:32:11 64° WNW 23:37:28 10° NNE
Cosmos 2208 Rocket 4.3 23:28:55 10° NNW 23:34:06 56° WSW 23:35:41 40° SSW
Cosmos 1814 Rocket 4.2 23:29:04 10° NNW 23:34:11 58° WSW 23:35:45 41° SSW
Cosmos 2219 Rocket 2.8 23:29:50 10° NNW 23:35:24 52° NE 23:38:19 27° ESE
Cosmos 2084 Rocket 3.3 23:35:30 61° SE 23:35:40 62° SE 23:39:56 10° NE
Tsikada Rocket 4.0 23:30:41 10° N 23:37:06 87° W 23:39:45 38° S
Cosmos 2082 Rocket 3.9 23:32:42 10° WSW 23:37:45 32° NW 23:42:49 10° NNE
EO 1 Del DPAF 3.1 23:36:03 10° NNE 23:39:50 71° ESE 23:39:56 70° ESE
Cosmos 2237 4.3 23:35:05 10° NW 23:40:44 64° WSW 23:42:34 42° S
Cosmos 2333 4.3 23:35:32 10° NNW 23:41:22 75° NE 23:43:44 37° SE
Terra 3.9 23:38:55 13° SW 23:41:22 19° W 23:44:43 10° NW
Cosmos 1242 Rocket 2.4 23:42:30 10° NNW 23:46:06 78° W 23:46:07 78° WSW
Cosmos 2322 Rocket 3.1 23:41:04 10° NW 23:46:16 38° WSW 23:48:01 31° SW
ERBS 3.7 23:45:52 10° WNW 23:48:59 37° N 23:51:02 18° ENE
Helios 1A 3.7 23:49:48 37° ESE 23:50:44 44° ENE 23:54:45 10° N
Cosmos 1486 Rocket 4.5 23:52:11 39° SE 23:52:55 42° ESE 23:57:49 10° NE
Meteor 1-11 Rocket 3.8 23:51:38 36° SSW 23:54:00 75° WNW 23:59:48 10° N
Cosmos 1544 4.5 23:54:38 27° E 23:54:38 27° E 23:57:29 10° NNE
